Location: Unspecified
(0.0000°N, 0.0000°E)
Time: 19:50:56
(UTC+00:00)

Falcon 9 debris - Visible Passes

Search period start: 10 August 2020 00:00
Search period end: 20 August 2020 00:00
Orbit: 428 x 432 km, 53.0° (Epoch: 10 August)

Date Brightness Start Highest point End Pass type
(mag) Time Alt. Az. Time Alt. Az. Time Alt. Az.
10 Aug ? 05:05:58 10° NNW 05:09:18 51° NE 05:12:38 10° SE visible
11 Aug ? 04:22:48 11° N 04:25:31 24° NE 04:28:22 10° ESE visible
12 Aug ? 05:17:25 18° W 05:18:27 20° SW 05:21:05 10° S visible
13 Aug ? 04:37:47 11° SSE 04:37:47 11° SSE 04:37:56 10° SSE visible
